STARLINK-4140 (53259 NORAD) Tracking and Keplerian Element Data

This shows tracking and keplerian element data for the satellite.

Feedback or suggestion? Click here.




ElementValue
Catalog53259
NameSTARLINK-4140
Epoch Orbit1074
Epoch Day270.25001157
Epoch Year2022
RAAN88.1425
Inclination53.2174
Eccentricity0.0001352
Argument of Perigee89.046
Mean Anonmoly143.9076
Mean Motion15.20093856
Decay Rate-0.01062522
L11 53259U 22086T 22270.25001157 -.01062522 00000+0 -53078-1 0 9999
L22 53259 53.2174 88.1425 0001352 89.0460 143.9076 15.20093856 10745

Live tracking and technical data element details for STARLINK-4140 (NORAD 53259). STARLINK-4140 can be tracked NOW for your location showing map with azimuth and elevation plus other details from your city location.

Track the satellite on the map from your city or location and see movement details for azimuth, elevation, latitude, longitude, range, height, and movement on the map or in text.







IsCatalogInMostPopularTable: catalog: 53259, numindb: 2
Update: records affected: 1



GetName: 53259 STARLINK-4140

Hit Count: updated at: Thu, 29 Sep 2022 10:29:33 GMT